Location: Rometta
(44.2000°N, 10.0500°E)
Time: 12:12:03
(UTC+00:00)

USA 229 - Pass Details

Date: 20 January 2021
Orbit: 964 x 1248 km, 63.4° (Epoch: 03 March)

Event Time Altitude Azimuth Distance (km) Brightness Sun altitude
Rises 19:41:18 0° 321° (NW) 3,972 7.2 -36.9°
Reaches altitude 10° 19:43:56 10° 320° (NW) 3,049 6.5 -37.4°
Enters shadow 19:49:24 53° 304° (NW) 1,425 4.4 -38.3°
